KD0NNG Weather Reports


time (UTC)temp
C
wind
direction
speed
KPH
gust
KPH
rain 1hr
cm
rain 24hr
cm
rain mn
cm
humidity
%
barometer
mb
20260504050432 11 169 1.6 6.4 0.00 0.00 0.00 55 1001.2
20260504050230 11 169 1.6 3.2 0.00 0.00 0.00 56 1001.5
20260504045432 11 169 1.6 3.2 0.00 0.00 0.00 56 1001.5
20260504044931 11 169 1.6 3.2 0.00 0.00 0.00 57 1001.6
20260504044431 11 169 0.0 1.6 0.00 0.00 0.00 58 1001.8
20260504043931 11 169 0.0 1.6 0.00 0.00 0.00 59 1001.8
20260504043429 11 169 0.0 1.6 0.00 0.00 0.00 58 1001.8
20260504043225 11 169 1.6 3.2 0.00 0.00 0.00 57 1002.0
20260504042430 11 169 1.6 3.2 0.00 0.00 0.00 57 1002.0
20260504041930 11 169 1.6 3.2 0.00 0.00 0.00 57 1002.1
20260504041431 11 169 1.6 3.2 0.00 0.00 0.00 58 1002.2
20260504040931 11 169 1.6 3.2 0.00 0.00 0.00 58 1002.4
20260504040429 11 170 1.6 3.2 0.00 0.00 0.00 57 1002.4
20260504035929 11 169 1.6 3.2 0.00 0.00 0.00 56 1002.6
20260504035429 11 225 1.6 3.2 0.00 0.00 0.00 55 1002.6
20260504034929 11 225 1.6 3.2 0.00 0.00 0.00 54 1002.7
20260504034429 11 225 1.6 3.2 0.00 0.00 0.00 54 1002.8
20260504033930 11 225 1.6 3.2 0.00 0.00 0.00 56 1002.9
20260504033428 12 225 1.6 3.2 0.00 0.00 0.00 53 1003.0
20260504032929 12 225 1.6 3.2 0.00 0.00 0.00 52 1003.2
20260504032445 12 225 1.6 3.2 0.00 0.00 0.00 52 1003.2
20260504031929 12 225 0.0 1.6 0.00 0.00 0.00 52 1003.3
20260504031431 12 225 0.0 1.6 0.00 0.00 0.00 53 1003.3
20260504030929 12 225 0.0 1.6 0.00 0.00 0.00 54 1003.4
20260504030430 12 225 0.0 1.6 0.00 0.00 0.00 52 1003.5
20260504025930 12 225 0.0 1.6 0.00 0.00 0.00 50 1003.6
20260504025435 13 225 1.6 3.2 0.00 0.00 0.00 48 1003.7
20260504024929 13 225 1.6 3.2 0.00 0.00 0.00 48 1003.7
20260504024430 13 225 0.0 3.2 0.00 0.00 0.00 47 1003.8
20260504024003 14 225 0.0 1.6 0.00 0.00 0.00 46 1003.8
20260504022931 15 225 0.0 1.6 0.00 0.00 0.00 47 1003.8
20260504022428 15 225 0.0 1.6 0.00 0.00 0.00 43 1003.8
20260504021929 15 225 0.0 1.6 0.00 0.00 0.00 42 1003.7
20260504021431 15 225 0.0 1.6 0.00 0.00 0.00 40 1003.7
20260504021221 16 225 0.0 1.6 0.00 0.00 0.00 38 1003.7
20260504020720 16 225 0.0 3.2 0.00 0.00 0.00 37 1003.7
20260504015927 16 225 0.0 3.2 0.00 0.00 0.00 36 1003.7
20260504015427 16 225 0.0 4.8 0.00 0.00 0.00 36 1003.8
20260504014925 16 225 1.6 4.8 0.00 0.00 0.00 35 1003.7
20260504014423 17 252 0.0 3.2 0.00 0.00 0.00 35 1003.7
20260504013921 17 215 1.6 3.2 0.00 0.00 0.00 34 1003.7
20260504013421 17 236 1.6 6.4 0.00 0.00 0.00 34 1003.7
20260504012920 17 236 3.2 11.3 0.00 0.00 0.00 33 1003.7
20260504012421 18 240 3.2 11.3 0.00 0.00 0.00 33 1003.8
20260504011921 18 235 1.6 6.4 0.00 0.00 0.00 33 1003.9
20260504011419 18 242 1.6 11.3 0.00 0.00 0.00 33 1003.9
20260504010917 18 232 3.2 11.3 0.00 0.00 0.00 32 1003.8
20260504010717 18 257 3.2 12.9 0.00 0.00 0.00 32 1003.8
20260504005916 18 242 3.2 12.9 0.00 0.00 0.00 31 1003.8
20260504005417 18 205 3.2 11.3 0.00 0.00 0.00 31 1003.9
20260504005210 18 248 4.8 14.5 0.00 0.00 0.00 31 1003.9
20260504004414 19 267 4.8 14.5 0.00 0.00 0.00 31 1003.9
20260504003915 19 250 4.8 11.3 0.00 0.00 0.00 31 1004.0
20260504003414 19 259 4.8 11.3 0.00 0.00 0.00 31 1004.0
20260504003207 19 179 4.8 16.1 0.00 0.00 0.00 31 1004.0
20260504002413 19 240 4.8 16.1 0.00 0.00 0.00 31 1004.1
20260504001909 19 159 4.8 12.9 0.00 0.00 0.00 30 1004.1
20260504001410 19 262 6.4 14.5 0.00 0.00 0.00 30 1004.1
20260504000909 19 245 6.4 14.5 0.00 0.00 0.00 29 1004.2
20260504000411 19 276 4.8 16.1 0.00 0.00 0.00 29 1004.2
20260503235910 20 244 6.4 16.1 0.00 0.00 0.00 28 1004.2
20260503235703 20 254 8.0 20.9 0.00 0.00 0.00 28 1004.2
20260503234909 20 225 6.4 20.9 0.00 0.00 0.00 28 1004.3
20260503234410 20 275 6.4 16.1 0.00 0.00 0.00 27 1004.3
20260503234203 20 252 8.0 16.1 0.00 0.00 0.00 27 1004.2
20260503233411 21 221 8.0 16.1 0.00 0.00 0.00 27 1004.2
20260503232911 21 273 6.4 16.1 0.00 0.00 0.00 26 1004.2
20260503232410 21 306 6.4 14.5 0.00 0.00 0.00 27 1004.2
20260503231911 21 283 8.0 14.5 0.00 0.00 0.00 27 1004.2
20260503231705 21 258 6.4 17.7 0.00 0.00 0.00 27 1004.2
20260503230907 21 229 6.4 17.7 0.00 0.00 0.00 25 1004.2
20260503230408 21 309 8.0 19.3 0.00 0.00 0.00 27 1004.4
20260503225908 21 283 8.0 20.9 0.00 0.00 0.00 28 1004.4
20260503225407 21 263 8.0 20.9 0.00 0.00 0.00 27 1004.4
20260503224908 21 284 8.0 17.7 0.00 0.00 0.00 27 1004.4
20260503224408 21 253 6.4 14.5 0.00 0.00 0.00 28 1004.4
20260503223908 21 202 6.4 19.3 0.00 0.00 0.00 29 1004.4
20260503223704 21 315 6.4 19.3 0.00 0.00 0.00 26 1004.5
20260503222903 21 260 8.0 20.9 0.00 0.00 0.00 27 1004.4
20260503222402 21 300 8.0 20.9 0.00 0.00 0.00 28 1004.5
20260503222238 21 277 6.4 17.7 0.00 0.00 0.00 27 1004.6
20260503221656 21 267 6.4 17.7 0.00 0.00 0.00 28 1004.5
20260503220902 21 254 8.0 19.3 0.00 0.00 0.00 28 1004.6
20260503220652 21 265 6.4 19.3 0.00 0.00 0.00 28 1004.6
20260503215903 21 249 6.4 19.3 0.00 0.00 0.00 28 1004.7
20260503215403 21 332 4.8 16.1 0.00 0.00 0.00 28 1004.8
20260503214904 20 227 8.0 22.5 0.00 0.00 0.00 28 1004.7
20260503214653 20 341 12.9 22.5 0.00 0.00 0.00 27 1004.8
20260503213902 20 280 11.3 22.5 0.00 0.00 0.00 29 1004.8
20260503213657 20 0 9.7 22.5 0.00 0.00 0.00 28 1004.8
20260503212904 20 313 9.7 19.3 0.00 0.00 0.00 27 1004.9
20260503212402 20 250 9.7 20.9 0.00 0.00 0.00 27 1004.9
20260503211903 20 346 11.3 22.5 0.00 0.00 0.00 26 1005.0
20260503211442 20 335 9.7 22.5 0.00 0.00 0.00 26 1004.9
20260503210403 20 327 9.7 24.1 0.00 0.00 0.00 27 1005.0
20260503205902 20 275 11.3 25.7 0.00 0.00 0.00 26 1005.3
20260503205402 20 344 14.5 27.4 0.00 0.00 0.00 25 1005.3
20260503204902 20 327 12.9 27.4 0.00 0.00 0.00 24 1005.4
20260503204403 20 289 11.3 22.5 0.00 0.00 0.00 25 1005.5
20260503203903 20 304 9.7 22.5 0.00 0.00 0.00 26 1005.3
20260503203403 20 265 8.0 30.6 0.00 0.00 0.00 27 1005.3
20260503202903 20 260 8.0 30.6 0.00 0.00 0.00 27 1005.3
20260503202402 20 346 9.7 30.6 0.00 0.00 0.00 27 1005.2
20260503201901 20 346 11.3 30.6 0.00 0.00 0.00 28 1005.5
20260503201401 20 340 9.7 20.9 0.00 0.00 0.00 28 1005.5
20260503200904 20 355 9.7 20.9 0.00 0.00 0.00 27 1005.5
20260503200654 20 296 9.7 19.3 0.00 0.00 0.00 30 1005.6
20260503195902 20 288 9.7 16.1 0.00 0.00 0.00 29 1005.7
20260503195402 20 299 11.3 20.9 0.00 0.00 0.00 30 1005.7
20260503194903 20 293 11.3 20.9 0.00 0.00 0.00 30 1005.7
20260503194403 20 298 9.7 22.5 0.00 0.00 0.00 29 1005.7
20260503193902 20 314 9.7 22.5 0.00 0.00 0.00 33 1005.7
20260503193439 20 278 11.3 24.1 0.00 0.00 0.00 31 1005.8
20260503192403 20 313 11.3 24.1 0.00 0.00 0.00 36 1005.8
20260503191929 20 309 11.3 24.1 0.00 0.00 0.00 33 1006.0
20260503191404 20 333 9.7 20.9 0.00 0.00 0.00 34 1005.9
20260503190902 20 319 9.7 20.9 0.00 0.00 0.00 36 1005.9
20260503190525 20 329 11.3 29.0 0.00 0.00 0.00 36 1005.9
20260503184908 19 269 11.3 24.1 0.00 0.00 0.00 36 1005.9
20260503184402 20 331 8.0 22.5 0.00 0.00 0.00 38 1006.0
20260503183903 20 310 9.7 25.7 0.00 0.00 0.00 39 1005.9
20260503183403 19 302 16.1 29.0 0.00 0.00 0.00 42 1006.0
20260503182903 19 355 17.7 29.0 0.00 0.00 0.00 40 1006.0
20260503182401 19 0 14.5 25.7 0.00 0.00 0.00 41 1006.1
20260503181901 19 355 12.9 22.5 0.00 0.00 0.00 41 1006.2
20260503181401 19 348 11.3 22.5 0.00 0.00 0.00 39 1006.2
20260503180901 18 300 11.3 24.1 0.00 0.00 0.00 38 1006.2
20260503180657 18 203 12.9 25.7 0.00 0.00 0.00 37 1006.4
20260503175901 18 342 14.5 27.4 0.00 0.00 0.00 37 1006.5
20260503175402 18 327 14.5 27.4 0.00 0.00 0.00 37 1006.6
20260503174902 18 320 16.1 32.2 0.00 0.00 0.00 40 1006.6
20260503174658 18 339 14.5 32.2 0.00 0.00 0.00 39 1006.6
20260503173902 18 340 14.5 27.4 0.00 0.00 0.00 40 1006.5
20260503173401 18 320 12.9 27.4 0.00 0.00 0.00 39 1006.7
20260503172902 18 315 12.9 24.1 0.00 0.00 0.00 39 1006.6
20260503172748 18 292 12.9 27.4 0.00 0.00 0.00 40 1006.7
20260503171402 18 351 14.5 27.4 0.00 0.00 0.00 42 1006.7
20260503170902 18 330 12.9 25.7 0.00 0.00 0.00 42 1006.7
20260503170401 18 333 12.9 29.0 0.00 0.00 0.00 43 1006.7
20260503150901 16 355 12.9 24.1 0.00 0.00 0.00 49 1006.3
20260503150657 16 9 11.3 24.1 0.00 0.00 0.00 50 1006.2
20260503150158 16 355 9.7 19.3 0.00 0.00 0.00 51 1006.2
20260503131402 13 261 4.8 16.1 0.00 0.00 0.00 53 1005.7
20260503130902 13 281 4.8 16.1 0.00 0.00 0.00 52 1005.6
20260503130658 13 287 4.8 11.3 0.00 0.00 0.00 51 1005.6
20260503120150 10 227 0.0 1.6 0.00 0.00 0.00 66 1004.9
20260503110403 11 227 0.0 1.6 0.00 0.00 0.00 59 1004.5
20260503080901 13 164 4.8 11.3 0.00 0.00 0.00 58 1005.2
20260503080401 12 208 4.8 11.3 0.00 0.00 0.00 58 1005.2
20260503072401 12 172 3.2 8.0 0.00 0.00 0.00 57 1005.6
20260503071903 12 145 3.2 9.7 0.00 0.00 0.00 56 1005.7
20260503071401 12 159 3.2 9.7 0.00 0.00 0.00 56 1005.8
20260503070920 12 153 3.2 8.0 0.00 0.00 0.00 55 1005.9
20260503070402 12 192 3.2 9.7 0.00 0.00 0.00 55 1006.1
20260503070203 13 180 3.2 9.7 0.00 0.00 0.00 54 1006.2